Regional Weather Roundup
Issued by NWS Sioux Falls, SD

Home | Current Version | Previous Version | Text Only | Print | Product List | Glossary Off
Versions: 1 2 3 4 5 6 7 8 9 10 11 12 13 14 15 16 17 18 19 20 21 22 23 24 25 26 27 28 29 30 31 32 33 34 35 36 37 38 39 40 41 42 43 44 45 46 47 48 49 50

000
ASUS43 KFSD 060902
RWRFSD

WEATHER ROUNDUP FOR SE SOUTH DAKOTA/SW MINNESOTA/NW IOWA
NATIONAL WEATHER SERVICE SIOUX FALLS SD
400 AM CDT FRI MAY 06 2016

NOTE: "FAIR" INDICATES FEW OR NO CLOUDS BELOW 12,000 FEET WITH NO
SIGNIFICANT WEATHER AND OR OBSTRUCTIONS TO VISIBILITY.


SDZ038>040-050-052>070-061000-
SOUTHEAST SOUTH DAKOTA

CITY           SKY/WX    TMP DP  RH WIND       PRES   REMARKS
BROOKINGS      CLEAR     54  44  69 S6        29.89F
CHAMBERLAIN    NOT AVBL
HURON          CLOUDY    61  48  62 S12       29.82F
MADISON        FAIR      59  41  51 S13       29.91S
MITCHELL       CLEAR     61  49  64 S9        29.87F
SIOUX FALLS    CLEAR     59  43  55 S10       29.91F
WINNER         LGT RAIN  66  48  52 S20G30    29.86S
YANKTON        CLEAR     63  43  48 S9        29.91S
$$

MNZ071-072-080-081-089-090-097-098-061000-
SOUTHWEST MINNESOTA

CITY           SKY/WX    TMP DP  RH WIND       PRES   REMARKS
FAIRMONT       CLEAR     61  37  41 SW16      29.93R
JACKSON        CLEAR     59  37  44 SW13      29.94F
LUVERNE        CLEAR     48  41  76 CALM      29.94S
MARSHALL       CLEAR     67  40  37 SW22      29.86F
MONTEVIDEO     CLEAR     55  43  62 SW8       29.87F
PIPESTONE      CLEAR     55  43  62 SW8       29.92F
REDWOOD FALLS  CLEAR     56  41  57 SW9       29.89S
TRACY          CLEAR     62  43  49 SW20      29.89S
WINDOM         CLEAR     57  43  58 S7        29.93S
WORTHINGTON    CLEAR     59  42  53 SW16      29.94S
$$

IAZ001>003-012>014-020>022-031-032-NEZ013-014-SDZ071-061000-
NORTHWEST IOWA

CITY           SKY/WX    TMP DP  RH WIND       PRES   REMARKS
DENISON        CLEAR     57  41  54 CALM      29.97S
ESTHERVILLE    CLEAR     57  41  55 SW14      29.94S
SIOUX CITY     CLEAR     50  44  80 SE8       29.96S
SPENCER        CLEAR     53  41  63 SW7       29.95F
STORM LAKE     CLEAR     57  41  54 SW10      29.97F
$$

ABBREVIATIONS USED IN REMARKS
   TC - TEMPERATURE IN CELSIUS
  WCI - WIND CHILL INDEX
   HX - HEAT INDEX
  VSB - VISIBILITY





USA.gov is the U.S. government's official web portal to all federal, state and local government web resources and services.